Location: �chenoz-la-M�line
(47.6009°N, 6.1354°E)
Time: 13:15:53
(UTC+00:00)

Cosmos 1953 Rocket - Pass Details

Date: 27 January 2021
Orbit: 605 x 634 km, 82.5° (Epoch: 02 March)

Event Time Altitude Azimuth Distance (km) Brightness Sun altitude
Rises 05:16:37 0° 354° (N) 2,874 6.9 -18.7°
Reaches altitude 10° 05:18:54 10° 360° (N) 1,967 6.1 -18.3°
Maximum altitude 05:23:09 52° 77° (ENE) 761 4.3 -17.6°
Drops below altitude 10° 05:27:23 10° 154° (SSE) 1,963 6.6 -16.9°
Sets 05:29:39 0° 160° (SSE) 2,867 7.4 -16.5°
